Kentucky Observed Data For Previous 48 Hours

Caption
Day and Hour Reservoir Elevation (behind dam)* Tailwater Elevation (below dam)* Average Hourly Discharge*
1/16/2019 1 AM CST 355.01 322.81 167,960
1/16/2019 2 AM CST 354.99 322.68 167,668
1/16/2019 3 AM CST 354.97 322.46 167,615
1/16/2019 4 AM CST 354.95 322.36 167,514
1/16/2019 5 AM CST 354.95 322.23 167,399
1/16/2019 6 AM CST 354.92 322.15 167,317
1/16/2019 7 AM CST 354.90 322.04 167,430
1/16/2019 8 AM CST 354.87 321.92 166,674
1/16/2019 9 AM CST 354.86 321.91 166,012
1/16/2019 10 AM CST 354.83 321.84 165,854
1/16/2019 11 AM CST 354.81 321.74 165,486
1/16/2019 12 PM CST 354.78 321.62 165,326
1/16/2019 1 PM CST 354.75 321.52 165,254
1/16/2019 2 PM CST 354.70 321.51 158,492
1/16/2019 3 PM CST 354.70 321.38 163,827
1/16/2019 4 PM CST 354.69 321.27 163,153
1/16/2019 5 PM CST 354.67 321.22 163,256
1/16/2019 6 PM CST 354.63 321.07 162,832
1/16/2019 7 PM CST 354.60 320.96 162,542
1/16/2019 8 PM CST 354.57 320.92 161,918
1/16/2019 9 PM CST 354.55 320.85 161,613
1/16/2019 10 PM CST 354.53 320.75 161,579
1/16/2019 11 PM CST 354.52 320.60 161,291
1/17/2019 12 AM CST 354.52 320.48 161,548
1/17/2019 1 AM CST 354.51 320.47 161,648
1/17/2019 2 AM CST 354.49 320.31 161,553
1/17/2019 3 AM CST 354.49 320.27 161,536
1/17/2019 4 AM CST 354.47 320.19 161,439
1/17/2019 5 AM CST 354.45 320.14 161,136
1/17/2019 6 AM CST 354.44 320.10 161,388
1/17/2019 7 AM CST 354.43 320.04 161,198
1/17/2019 8 AM CST 354.41 319.96 161,365
1/17/2019 9 AM CST 354.38 319.91 161,082
1/17/2019 10 AM CST 354.36 319.89 160,790
1/17/2019 11 AM CST 354.32 319.86 160,504
1/17/2019 12 PM CST 354.29 319.71 160,121
1/17/2019 1 PM CST 354.32 319.41 159,894
1/17/2019 2 PM CST 354.30 319.29 150,724
1/17/2019 3 PM CST 354.28 319.10 148,055
1/17/2019 4 PM CST 354.25 319.19 147,811
1/17/2019 5 PM CST 354.22 318.95 147,575
1/17/2019 6 PM CST 354.20 318.83 147,550
1/17/2019 7 PM CST 354.17 318.93 147,849
1/17/2019 8 PM CST 354.12 318.76 147,481
1/17/2019 9 PM CST 354.12 318.73 147,380
1/17/2019 10 PM CST 354.09 318.57 147,241
1/17/2019 11 PM CST 354.06 318.53 147,112

Elevations are in feet above sea level. Discharges are in cubic feet per second and are reported at the end of the hour.